Time,TemperatureF,DewpointF,PressureIn,WindDirection,WindDirectionDegrees,WindSpeedMPH,WindSpeedGustMPH,Humidity,HourlyPrecipIn,Conditions,Clouds,dailyrainin,SoftwareType,DateUTC
2015-07-08 00:00:00,61.3,56.4,29.99,NE,45,0.0,3.0,84,0.00,,---,0.00,VWS V15.00,2015-07-08 04:00:00,
2015-07-08 00:01:00,61.3,56.4,29.99,NE,45,0.0,3.0,84,0.00,,---,0.23,VWS V15.00,2015-07-08 04:01:00,
2015-07-08 00:06:00,61.3,56.4,30.00,NNE,28,1.0,3.0,84,0.00,,---,0.00,VWS V15.00,2015-07-08 04:06:00,
2015-07-08 00:11:00,61.3,56.1,30.00,NNE,25,3.0,4.0,83,0.00,,---,0.00,VWS V15.00,2015-07-08 04:11:00,
2015-07-08 00:16:00,61.4,55.5,30.00,NNW,329,1.0,5.0,81,0.00,,---,0.00,VWS V15.00,2015-07-08 04:16:00,
2015-07-08 00:21:00,61.4,55.9,30.00,NE,34,1.0,5.0,82,0.00,,---,0.00,VWS V15.00,2015-07-08 04:21:00,
2015-07-08 00:27:00,61.4,55.5,30.00,NNE,23,0.0,5.0,81,0.00,,---,0.00,VWS V15.00,2015-07-08 04:27:00,
2015-07-08 00:32:00,61.3,55.8,30.00,NNE,33,1.0,5.0,82,0.00,,---,0.00,VWS V15.00,2015-07-08 04:32:00,
2015-07-08 00:37:00,61.3,55.8,30.00,North,360,1.0,2.0,82,0.00,,---,0.00,VWS V15.00,2015-07-08 04:37:00,
2015-07-08 00:42:00,61.2,56.0,30.00,North,355,0.0,2.0,83,0.00,,---,0.00,VWS V15.00,2015-07-08 04:42:00,
2015-07-08 00:47:00,61.1,55.9,30.00,NE,56,0.0,2.0,83,0.00,,---,0.00,VWS V15.00,2015-07-08 04:47:00,
2015-07-08 00:52:00,61.0,56.1,30.00,NE,54,1.0,2.0,84,0.00,,---,0.00,VWS V15.00,2015-07-08 04:52:00,
2015-07-08 00:57:00,60.9,56.4,30.00,NE,46,0.0,2.0,85,0.00,,---,0.00,VWS V15.00,2015-07-08 04:57:00,
2015-07-08 01:02:00,60.8,56.3,30.00,NE,40,1.0,1.0,85,0.00,,---,0.00,VWS V15.00,2015-07-08 05:02:00,
2015-07-08 01:07:00,60.7,56.2,30.00,NE,42,0.0,2.0,85,0.00,,---,0.00,VWS V15.00,2015-07-08 05:07:00,
2015-07-08 01:12:00,60.6,56.4,30.00,NW,319,1.0,2.0,86,0.00,,---,0.00,VWS V15.00,2015-07-08 05:12:00,
2015-07-08 01:17:00,60.5,56.0,30.00,NNE,12,0.0,2.0,85,0.00,,---,0.00,VWS V15.00,2015-07-08 05:17:00,
2015-07-08 01:22:00,60.5,56.3,30.00,East,89,2.0,2.0,86,0.00,,---,0.00,VWS V15.00,2015-07-08 05:22:00,
2015-07-08 01:27:00,60.4,55.9,30.00,NNE,30,0.0,3.0,85,0.00,,---,0.00,VWS V15.00,2015-07-08 05:27:00,
2015-07-08 01:32:00,60.4,56.2,30.00,NNE,30,0.0,1.0,86,0.00,,---,0.00,VWS V15.00,2015-07-08 05:32:00,
2015-07-08 01:38:00,60.4,56.2,30.00,NNW,344,0.0,2.0,86,0.00,,---,0.00,VWS V15.00,2015-07-08 05:38:00,
2015-07-08 01:43:00,60.4,56.2,30.00,North,355,0.0,2.0,86,0.00,,---,0.00,VWS V15.00,2015-07-08 05:43:00,
2015-07-08 01:48:00,60.4,55.9,30.00,NNE,33,0.0,2.0,85,0.00,,---,0.00,VWS V15.00,2015-07-08 05:48:00,
2015-07-08 01:53:00,60.4,56.2,30.00,NNE,33,0.0,2.0,86,0.00,,---,0.00,VWS V15.00,2015-07-08 05:53:00,
2015-07-08 01:58:00,60.3,56.1,30.01,NE,51,2.0,2.0,86,0.00,,---,0.00,VWS V15.00,2015-07-08 05:58:00,
2015-07-08 02:00:00,60.3,56.4,30.01,NE,47,0.0,2.0,87,0.00,,---,0.00,VWS V15.00,2015-07-08 06:00:00,
2015-07-08 02:05:00,60.3,56.4,30.01,NNW,333,1.0,1.0,87,0.00,,---,0.00,VWS V15.00,2015-07-08 06:05:00,
2015-07-08 02:10:00,60.2,56.0,30.01,NE,43,0.0,4.0,86,0.00,,---,0.00,VWS V15.00,2015-07-08 06:10:00,
2015-07-08 02:15:00,60.3,56.1,30.01,NE,40,1.0,4.0,86,0.00,,---,0.00,VWS V15.00,2015-07-08 06:15:00,
2015-07-08 02:20:00,60.3,55.8,30.01,NNE,24,2.0,4.0,85,0.00,,---,0.00,VWS V15.00,2015-07-08 06:20:00,
2015-07-08 02:25:00,60.4,55.9,30.01,NE,43,2.0,4.0,85,0.00,,---,0.00,VWS V15.00,2015-07-08 06:25:00,
2015-07-08 02:30:00,60.4,56.2,30.01,NE,45,0.0,4.0,86,0.00,,---,0.00,VWS V15.00,2015-07-08 06:30:00,
2015-07-08 02:35:00,60.4,56.2,30.01,NNE,13,0.0,2.0,86,0.00,,---,0.00,VWS V15.00,2015-07-08 06:35:00,